Regional Weather Roundup
Issued by NWS

Home | Current Version | Previous Version | Text Only | Print | Product List | Glossary On
Versions: 1 2 3 4 5 6 7 8 9 10 11 12 13 14 15 16 17 18 19 20 21 22 23 24 25 26 27 28 29 30 31 32 33 34 35 36 37 38 39 40 41 42 43 44 45 46 47 48 49 50
000
ASUS45 KABQ 191810
RWRNM
WEATHER ROUNDUP FOR NEW MEXICO
NATIONAL WEATHER SERVICE ALBUQUERQUE NM
1200 PM MDT FRI SEP 19 2014

NOTE: "FAIR" MEANS FEW OR NO CLOUDS BELOW 12,000 FEET AGL WITH NO
       SIGNIFICANT WEATHER OR OBSTRUCTIONS TO VISION.

      THIS PRODUCT IS RELEASED AS TWO VERSIONS.  ONE VERSION NEAR
      THE TOP OF THE HOUR CONTAINING PRELIMINARY DATA FROM ALBUQUERQUE
      AND OTHER STATIONS.  A FINAL VERSION WITH ADDITIONAL DATA IS
      ISSUED ABOUT 10 MINUTES AFTER THE HOUR.

NMZ501-503-504-510>518-191900-
NORTHWEST PLATEAU/NORTHCENTRAL MOUNTAINS

CITY           SKY/WX    TMP DP  RH WIND       PRES   REMARKS
FARMINGTON     SUNNY     78  51  38 CALM      30.08F
6HR MIN TEMP:  55; 6HR MAX TEMP:  78;

LOS ALAMOS     SUNNY     70  50  49 CALM      30.21F
SANTA FE       SUNNY     74  50  42 VRB3      30.14F
6HR MIN TEMP:  56; 6HR MAX TEMP:  75;

TAOS           SUNNY     70  48  46 CALM      30.19F
ANGEL FIRE     FAIR      68  40  36 CALM      30.25F

$$
NMZ402-403-502-505>509-191900-
WESTCENTRAL MOUNTAINS/SOUTHWEST MOUNTAINS

CITY           SKY/WX    TMP DP  RH WIND       PRES   REMARKS
GALLUP         SUNNY     76  47  35 W5        30.16F
6HR MIN TEMP:  44; 6HR MAX TEMP:  77;

GRANTS           N/A    N/A N/A N/A MISG        N/A
SILVER CITY    SUNNY     72  57  60 E6        30.11F

$$
NMZ407-409-411-412-191900-
SOUTHERN DESERTS

CITY           SKY/WX    TMP DP  RH WIND       PRES   REMARKS
LORDSBURG      CLOUDY    73  63  68 MISG      30.04S
DEMING         MOSUNNY   74  64  71 VRB3      30.04F
6HR MIN TEMP:  60; 6HR MAX TEMP:  75;

LAS CRUCES     PTSUNNY   73  64  73 CALM      30.05S
HOLLOMAN AFB   PTSUNNY   71  65  79 CALM      30.01S
ALAMOGORDO     CLOUDY    70  64  83 SW3       30.03S
T OR C         MOSUNNY   77  60  55 N9G17     30.05F
6HR MIN TEMP:  59; 6HR MAX TEMP:  77;


$$
NMZ519>523-191900-
CENTRAL VALLEYS/CENTRAL HIGHLANDS

CITY           SKY/WX    TMP DP  RH WIND       PRES   REMARKS
ALBUQUERQUE    MOSUNNY   76  55  48 CALM      30.10F
6HR MIN TEMP:  64; 6HR MAX TEMP:  76;

DOUBLE EAGLE   PTSUNNY   73  54  49 CALM      30.13F
MORIARTY ARPT  CLOUDY    69  55  60 CALM      30.17F
CLINES CORNERS CLOUDY    65  55  70 E8        30.20F
6HR MIN TEMP:  57; 6HR MAX TEMP:  65;

BELEN          FAIR      75  57  52 NE5       30.09F
6HR MIN TEMP:  60; 6HR MAX TEMP:  75;

SOCORRO        FAIR      74  62  64 N6        30.07F
6HR MIN TEMP:  62; 6HR MAX TEMP:  74;


$$
NMZ524>526-539-540-191900-
SOUTHCENTRAL MOUNTAINS

CITY           SKY/WX    TMP DP  RH WIND       PRES   REMARKS
RUIDOSO        CLOUDY    63  59  88 NE7       30.18S

$$
NMZ527>531-191900-
NORTHEAST HIGHLANDS/NORTHEAST PLAINS

CITY           SKY/WX    TMP DP  RH WIND       PRES   REMARKS
LAS VEGAS      CLOUDY    67  55  65 S15       30.19F
6HR MIN TEMP:  54; 6HR MAX TEMP:  69;

RATON          PTSUNNY   69  54  58 VRB3      30.13F
6HR MIN TEMP:  59; 6HR MAX TEMP:  70;

CLAYTON        MOSUNNY   75  57  53 S13       30.07F
6HR MIN TEMP:  62; 6HR MAX TEMP:  76;


$$
NMZ532>537-191900-
EASTCENTRAL PLAINS

CITY           SKY/WX    TMP DP  RH WIND       PRES   REMARKS
TUCUMCARI      CLOUDY    76  61  59 S10       30.05F
6HR MIN TEMP:  63; 6HR MAX TEMP:  77; 6HR PCP: TRACE;

CANNON AFB     PTSUNNY   72  68  88 E7        30.07F
6HR MIN TEMP:  64; 6HR MAX TEMP:  72; 6HR PCP: TRACE;

CLOVIS AIRPORT   N/A     70  64  83 SE9       30.10S

$$
NMZ028-029-538-191900-
SOUTHEAST PLAINS

CITY           SKY/WX    TMP DP  RH WIND       PRES   REMARKS
ROSWELL        LGT RAIN  71  66  84 SE10      30.00S
6HR MIN TEMP:  68; 6HR MAX TEMP:  71; 6HR PCP:  0.07;

CARLSBAD       CLOUDY    72  50  46 SE12      29.97F
6HR MIN TEMP:  68; 6HR MAX TEMP:  72;

HOBBS          DRIZZLE   68  68 100 SE10      30.03S


$$


USA.gov is the U.S. government's official web portal to all federal, state and local government web resources and services.